DW6873 Weather Reports


Display with metric or nautical units.
time (UTC)temp
F
wind
direction
speed
MPH
gust
MPH
rain 1hr
in
rain 24hr
in
rain mn
in
humidity
%
barometer
mb
20260831021551 61 320 0.0 0.0 0.00 0.40 0.40 87 1004.6
20260831020044 59 333 0.0 0.0 0.00 0.40 0.40 96 1003.9
20260831014541 59 302 0.0 0.0 0.00 0.40 0.40 96 1004.0
20260831013040 59 306 0.0 0.0 0.01 0.40 0.40 96 1004.3
20260831011539 59 338 0.0 0.0 0.04 0.40 0.40 96 1004.9
20260831010038 60 290 0.0 0.0 0.08 0.40 0.40 97 1005.3
20260831004502 61 322 0.0 1.0 0.28 0.40 0.40 96 1004.3
20260831003100 63 295 0.0 0.0 0.33 0.38 0.38 97 1004.4
20260831001547 63 284 0.0 0.0 0.30 0.35 0.35 96 1004.6
20260831000057 64 259 0.0 1.0 0.27 0.32 0.32 95 1003.6
20260830234548 65 266 0.0 1.0 0.07 0.12 0.12 90 1002.6
20260830233142 76 245 0.0 1.0 0.00 0.05 0.05 71 1001.7
20260830231542 77 119 0.0 0.0 0.00 0.05 0.05 73 1000.6
20260830230040 78 130 0.0 0.0 0.00 0.05 0.05 71 1000.2
20260830224547 78 141 0.0 0.0 0.00 0.05 0.05 70 1000.5
20260830223142 79 205 0.0 0.0 0.00 0.05 0.05 69 1000.4
20260830221544 79 154 0.0 0.0 0.00 0.05 0.05 68 1000.6
20260830220042 80 131 0.0 0.0 0.00 0.05 0.05 68 1000.9
20260830214537 81 128 0.0 1.0 0.00 0.05 0.05 67 1000.6
20260830213137 83 77 0.0 0.0 0.00 0.05 0.05 65 1000.6
20260830211542 82 89 0.0 0.0 0.00 0.05 0.05 67 1000.9
20260830210039 82 98 0.0 0.0 0.00 0.05 0.05 67 1001.4
20260830204542 83 99 0.0 0.0 0.00 0.05 0.05 67 1001.8
20260830203046 81 148 0.0 0.0 0.00 0.05 0.05 70 1002.0
20260830201504 82 71 0.0 0.0 0.00 0.05 0.05 68 1001.9
20260830200111 82 57 0.0 0.0 0.00 0.05 0.05 69 1002.1
20260830194527 81 118 0.0 0.0 0.00 0.05 0.05 71 1002.1
20260830193028 80 114 0.0 0.0 0.00 0.05 0.05 70 1002.3
20260830191557 79 132 0.0 0.0 0.00 0.05 0.05 75 1002.5
20260830190049 78 139 0.0 0.0 0.00 0.05 0.05 76 1002.5
20260830184520 78 139 0.0 0.0 0.00 0.05 0.05 78 1002.6
20260830183013 77 152 0.0 0.0 0.00 0.05 0.05 79 1003.0
20260830181511 79 148 0.0 0.0 0.00 0.05 0.05 77 1003.2
20260830180015 79 203 0.0 0.0 0.00 0.05 0.05 78 1003.3
20260830174508 78 191 0.0 0.0 0.00 0.05 0.05 78 1003.4
20260830173007 78 171 0.0 0.0 0.00 0.05 0.05 78 1003.6
20260830171505 78 138 0.0 0.0 0.00 0.05 0.05 78 1003.5
20260830170004 78 153 0.0 0.0 0.00 0.05 0.05 79 1003.7
20260830164503 78 120 0.0 0.0 0.00 0.05 0.05 78 1003.6
20260830163112 77 198 0.0 0.0 0.00 0.05 0.05 80 1003.5
20260830161552 76 221 0.0 0.0 0.00 0.05 0.05 83 1003.6
20260830160051 75 144 0.0 0.0 0.00 0.05 0.05 83 1003.7
20260830154550 75 185 0.0 0.0 0.00 0.05 0.05 85 1003.7
20260830153052 75 143 0.0 0.0 0.00 0.05 0.05 87 1003.9
20260830151545 74 163 0.0 0.0 0.00 0.05 0.05 87 1003.9
20260830150047 73 141 0.0 0.0 0.00 0.05 0.05 92 1003.8
20260830144545 72 137 0.0 0.0 0.00 0.05 0.05 91 1003.9
20260830143043 70 126 0.0 0.0 0.00 0.05 0.05 93 1004.0
20260830141512 70 134 0.0 0.0 0.00 0.05 0.05 95 1004.2
20260830140016 69 160 0.0 0.0 0.00 0.05 0.05 96 1004.0
20260830134519 68 146 0.0 0.0 0.00 0.05 0.05 97 1003.9
20260830133014 67 130 0.0 0.0 0.00 0.05 0.05 97 1004.0
20260830131508 66 128 0.0 0.0 0.00 0.05 0.05 97 1004.2
20260830130006 0 0.0 0.0 0.00 0.05 0.05 1004.4
20260830124602 0 0.0 0.0 0.00 0.05 0.05 1004.4
20260830123100 0 0.0 0.0 0.00 0.05 0.05 1004.5
20260830121558 0 0.0 0.0 0.00 0.05 0.05 1004.5
20260830120105 0 0.0 0.0 0.00 0.05 0.05 1004.3
20260830114603 0 0.0 0.0 0.00 0.05 0.05 1004.3
20260830113051 0 0.0 0.0 0.00 0.05 0.05 1004.2
20260830111547 0 0.0 0.0 0.00 0.05 0.05 1003.7
20260830110043 0 0.0 0.0 0.00 0.05 0.05 1003.5
20260830104538 0 0.0 0.0 0.00 0.05 0.05 1003.5
20260830103007 0 0.0 0.0 0.00 0.05 0.05 1003.3
20260830101608 65 310 0.0 0.0 0.00 0.05 0.05 95 1003.1
20260830100118 66 13 0.0 0.0 0.00 0.05 0.05 95 1003.1
20260830094557 66 62 0.0 0.0 0.00 0.05 0.05 95 1003.2
20260830093053 67 68 0.0 0.0 0.00 0.05 0.05 95 1003.3
20260830091551 68 65 0.0 0.0 0.00 0.05 0.05 96 1003.1
20260830090019 68 34 0.0 0.0 0.00 0.05 0.05 95 1003.0
20260830084517 68 34 0.0 0.0 0.01 0.05 0.05 94 1003.3
20260830083016 69 214 0.0 0.0 0.05 0.05 0.05 94 1003.4
20260830081516 69 171 0.0 0.0 0.05 0.05 0.05 94 1003.4
20260830080008 69 70 0.0 0.0 0.05 0.05 0.05 93 1003.8
20260830074507 69 127 0.0 0.0 0.04 0.04 0.04 96 1004.4
20260830073008 69 94 0.0 0.0 0.00 0.00 0.00 95 1004.2
20260830071506 69 123 0.0 0.0 0.00 0.00 0.00 96 1004.6
20260830070005 69 127 0.0 0.0 0.00 0.00 0.00 96 1004.4
20260830064503 68 92 0.0 0.0 0.00 0.00 0.00 95 1004.0
20260830063109 68 94 0.0 0.0 0.00 0.00 0.00 95 1004.0
20260830061600 68 63 0.0 0.0 0.00 0.00 0.00 95 1004.1
20260830060058 68 60 0.0 0.0 0.00 0.00 0.00 95 1004.2
20260830054557 68 34 0.0 0.0 0.00 0.00 0.00 93 1004.3
20260830053056 69 8 0.0 0.0 0.00 0.00 0.00 91 1004.2
20260830051548 70 67 0.0 0.0 0.00 0.00 0.00 91 1004.5
20260830050047 71 68 0.0 0.0 0.00 0.00 0.00 91 1004.4
20260830044553 71 63 0.0 0.0 0.00 0.00 0.00 90 1004.4
20260830043044 71 76 0.0 0.0 0.00 0.00 0.00 90 1004.6
20260830041551 71 63 0.0 0.0 0.00 0.00 0.00 88 1004.9
20260830040040 71 57 0.0 0.0 0.00 0.00 0.00 87 1004.8
20260830034542 71 63 0.0 0.0 0.00 0.00 0.00 86 1004.8
20260830033005 71 69 0.0 0.0 0.00 0.00 0.00 85 1004.8
20260830031503 71 56 0.0 0.0 0.00 0.01 0.00 85 1004.8
20260830030031 70 48 0.0 0.0 0.00 0.01 0.00 86 1004.7
20260830024529 71 84 0.0 0.0 0.00 0.01 0.00 86 1004.5
20260830023024 71 108 0.0 0.0 0.00 0.01 0.00 85 1004.4